User: anonymous   Login
Location: Unspecified
(0.0000°N, 0.0000°E)
Time: 07:35:05
(UTC+00:00)
Language:

NOAA 6 - Orbit

View from above orbital plane
View from above orbital plane
View from above satellite
View from above satellite

Ground track
Ground track

The orbit data is extracted from the following two-line orbital elements,

1 11416U 79057A   18115.96660181 +.00000048 +00000-0 +33538-4 0  9992
2 11416 098.6087 106.6095 0011279 048.8466 311.3689 14.33475419024677
Epoch (UTC): 25 April 2018 23:11:54
Eccentricity: 0.0011279
inclination: 98.6087°
perigee height: 772 km
apogee height: 788 km
right ascension of ascending node: 106.6095°
argument of perigee: 48.8466°
revolutions per day: 14.33475419
mean anomaly at epoch: 311.3689°
orbit number at epoch: 2467

The dashed part of the orbit path shows where the satellite is in the earth's shadow,  

DLR